[Date Prev][Date Next][Thread Prev][Thread Next] - [Date Index][Thread Index][Author Index]
2 Line ISS Keps 12-20
- Subject: [sarex] 2 Line ISS Keps 12-20
- From: "Dave Larsen Ph.D." <doc@xxxxxxxxxxx>
- Date: Fri, 20 Dec 2002 03:02:29 -0800
ISS
1 25544U 98067A 02354.15023148 .00029658 00000-0 39592-3 0 4949
2 25544 51.6328 199.4610 0003420 289.6454 213.2428 15.57817516233112
----
Via the sarex mailing list at AMSAT.ORG courtesy of AMSAT-NA.
To unsubscribe, send "unsubscribe sarex" to Majordomo@amsat.org
AMSAT Home